{"data":{"norad_id":54043,"epoch":"2026-09-20T22:26:27.112992Z","epoch_age_seconds":117909,"freshness":"FRESH","line1":"1 54043U 22133B   26263.93503603  .00009385  00000+0  27601-3 0  9998","line2":"2 54043  34.9944 218.4450 0005771 252.1222 107.8867 15.34291006219551","mean_motion":15.34291006,"eccentricity":0.0005771,"inclination_deg":34.9944,"raan_deg":218.445,"arg_perigee_deg":252.1222,"mean_anomaly_deg":107.8867,"bstar":0.00027601,"rev_number":21955,"period_min":93.854424901713,"perigee_km":459.07917665502,"apogee_km":466.97524838911,"semimajor_km":6841.1642125221,"source":"CELESTRAK","updated_at":"2026-09-21T09:00:09.349958Z"}}